Content
SEND FEEDBACK

Daily
Averages
Monthly
Summary
Netherlands

ROTTERDAM, NETHERLANDS


Home > Europe > Netherlands
Elevation: 13 feet     Latitude: 51 57N     Longitude: 004 26E

WEATHER
 
SELECT A DAY
Number of Records: 416,328;   Date Range: 7/1/96 - 9/15/14
 
SHARE

PRINT THIS DATA

[ ← Previous Day ]
WEATHER ALMANAC - JULY 28, 2013
[ Next Day → ]
[ °C ]   °F
Weather ElementAverageHighLow
Temperature68.9 °F75.2 °F (4:25 pm)64.4 °F (7:25 am)
Dewpoint59.9 °F68 °F (12:55 am)55.4 °F (2:25 pm)
Humidity73.3 %100 % (12:55 am)48 % (2:00 pm)
Barometer29.79 in29.89 in (10:25 pm)29.62 in (1:55 am)
Wind Speed12.7 mph18.4 mph (4:55 am)
Wind Gust25.3 mph (4:55 pm)
Weather ElementAverage
Visibility7.7 mi
Wind DirectionSSW (195 °)

Weather ElementTotal
Precipitation---
Cooling Degree Days4.8 (Base 65)
Growing Degree Days19.8 (Base 50)
Averaged from 54 records on July 28, 2013
WEATHER CONDITIONS BREAKOUT
WIND DIRECTION BREAKOUT
WEATHER BY HOUR - JULY 28, 2013
[ °C ]   °F
Local TimeTemperatureDewpointHumidityBarometerVisibilityWind DirectionWind SpeedGust SpeedPrecipitationEventsConditions
12:55 AM68.0 °F68.0 °F100 %29.68 in2.2 miESE (110°)15.0 mphRain-ThunderstormThunderstorms and Rain
1:25 AM68.0 °F68.0 °F100 %29.68 inESE (120°)11.5 mphRain-ThunderstormThunderstorms and Rain
1:55 AM68.0 °F66.2 °F94 %29.62 in5.6 miEast (100°)16.1 mphRainLight Rain
2:00 AM67.0 °F66.0 °F97 %29.64 in6.0 miEast (100°)13.4 mphThunderstormLight Thunderstorm
2:25 AM68.0 °F66.2 °F94 %29.62 in6.2 miESE (120°)8.1 mph
2:55 AM68.0 °F66.2 °F94 %29.62 in6.2 miSE (140°)8.1 mph
3:25 AM68.0 °F64.4 °F88 %29.65 in6.2 miSSE (160°)11.5 mphOvercast
3:55 AM68.0 °F64.4 °F88 %29.65 in6.2 miSouth (180°)12.7 mphOvercast
4:25 AM68.0 °F66.2 °F94 %29.68 in6.2 miSSW (200°)10.4 mph23.0 mphMostly Cloudy
4:55 AM66.2 °F62.6 °F88 %29.68 in6.2 miWSW (240°)18.4 mphMostly Cloudy
5:00 AM66.0 °F62.0 °F81 %29.70 in28.0 miSW (230°)15.7 mphScattered Clouds
5:25 AM66.2 °F62.6 °F88 %29.68 in6.2 miSW (220°)17.3 mphOvercast
5:55 AM66.2 °F60.8 °F83 %29.71 in6.2 miSW (220°)16.1 mphOvercast
6:25 AM66.2 °F60.8 °F83 %29.71 in6.2 miSW (220°)15.0 mphMostly Cloudy
6:55 AM66.2 °F60.8 °F83 %29.74 in6.2 miSSW (210°)17.3 mphOvercast
7:25 AM64.4 °F59.0 °F83 %29.74 in6.2 miSSW (210°)13.8 mphOvercast
7:55 AM64.4 °F59.0 °F83 %29.74 in6.2 miSW (220°)15.0 mphOvercast
8:00 AM65.0 °F59.0 °F75 %29.77 in15.0 miSW (220°)15.7 mphPartly Cloudy
8:25 AM64.4 °F59.0 °F83 %29.77 in6.2 miSW (220°)16.1 mphOvercast
8:55 AM64.4 °F59.0 °F83 %29.77 in6.2 miSW (220°)16.1 mphOvercast
9:25 AM66.2 °F59.0 °F78 %29.77 in6.2 miSW (220°)17.3 mphPartly Cloudy
9:55 AM66.2 °F59.0 °F78 %29.80 in6.2 miSW (220°)16.1 mphPartly Cloudy
10:25 AM66.2 °F57.2 °F73 %29.80 in6.2 miSW (220°)16.1 mphPartly Cloudy
10:55 AM66.2 °F59.0 °F78 %29.80 in6.2 miSW (230°)12.7 mphPartly Cloudy
11:00 AM66.0 °F58.0 °F68 %29.83 in17.0 miSW (230°)15.7 mphMostly Cloudy
11:25 AM66.2 °F59.0 °F78 %29.83 in6.2 miSW (220°)13.8 mph
11:55 AM68.0 °F59.0 °F73 %29.83 in6.2 miSW (220°)13.8 mph
12:25 PM68.0 °F59.0 °F73 %29.83 in6.2 miSSW (210°)12.7 mph
12:55 PM69.8 °F59.0 °F68 %29.83 in6.2 miSW (220°)12.7 mphPartly Cloudy
1:25 PM71.6 °F59.0 °F64 %29.83 in6.2 miSSW (210°)12.7 mphPartly Cloudy
1:55 PM73.4 °F59.0 °F61 %29.83 in6.2 miSSW (210°)11.5 mphScattered Clouds
2:00 PM72.0 °F56.0 °F48 %29.86 in19.0 miWSW (250°)13.4 mphPartly Cloudy
2:25 PM71.6 °F55.4 °F57 %29.86 in6.2 miSW (230°)12.7 mph24.2 mphPartly Cloudy
2:55 PM73.4 °F57.2 °F57 %29.86 in6.2 miSSW (210°)12.7 mphScattered Clouds
3:25 PM73.4 °F59.0 °F61 %29.86 in6.2 miSSW (200°)13.8 mphScattered Clouds
3:55 PM73.4 °F57.2 °F57 %29.86 in6.2 miSSW (210°)11.5 mphPartly Cloudy
4:25 PM75.2 °F59.0 °F57 %29.86 in6.2 miSW (220°)15.0 mphMostly Cloudy
4:55 PM73.4 °F57.2 °F57 %29.86 in6.2 miSSW (200°)13.8 mph25.3 mphMostly Cloudy
5:00 PM74.0 °F58.0 °F48 %29.86 in19.0 miSW (220°)13.4 mphPartly Cloudy
5:25 PM73.4 °F57.2 °F57 %29.86 in6.2 miSSW (200°)15.0 mphMostly Cloudy
5:55 PM71.6 °F57.2 °F60 %29.86 in6.2 miSW (220°)15.0 mph
6:25 PM75.2 °F59.0 °F57 %29.86 in6.2 miSouth (190°)12.7 mphScattered Clouds
6:55 PM73.4 °F57.2 °F57 %29.86 in6.2 miSouth (190°)11.5 mphMostly Cloudy
7:25 PM71.6 °F57.2 °F60 %29.86 in6.2 miSouth (190°)12.7 mphPartly Cloudy
7:55 PM71.6 °F59.0 °F64 %29.86 in6.2 miSouth (190°)11.5 mph
8:00 PM72.0 °F58.0 °F52 %29.88 in22.0 miSSW (200°)8.9 mphPartly Cloudy
8:25 PM71.6 °F57.2 °F60 %29.86 in6.2 miSouth (190°)10.4 mphScattered Clouds
8:55 PM71.6 °F57.2 °F60 %29.86 in6.2 miSouth (180°)8.1 mph
9:25 PM69.8 °F57.2 °F64 %29.86 in6.2 miSouth (170°)6.9 mphPartly Cloudy
9:55 PM68.0 °F59.0 °F73 %29.86 in6.2 miSouth (170°)8.1 mph
10:25 PM68.0 °F59.0 °F73 %29.89 in6.2 miSouth (170°)4.6 mph
10:55 PM68.0 °F59.0 °F73 %29.89 in6.2 miSSE (150°)4.6 mph
11:25 PM66.2 °F59.0 °F78 %29.89 in6.2 miSSE (150°)4.6 mph
11:55 PM66.2 °F57.2 °F73 %29.89 in6.2 miSSE (160°)4.6 mph
Hourly data recorded from EHRD, located miles away from Rotterdam, Netherlands







STORIES FROM OUR PARTNERS